Regional Weather Roundup
Issued by NWS

Home | Current Version | Previous Version | Graphics & Text | Print | Product List | Glossary On
Versions: 1 2 3 4 5 6 7 8 9 10 11 12 13 14 15 16 17 18 19 20 21 22 23 24 25 26 27 28 29 30 31 32 33 34 35 36 37 38 39 40 41 42 43 44 45 46 47 48 49 50
000
ASUS45 KBOU 020110
RWRCO

WEATHER ROUNDUP FOR COLORADO
NATIONAL WEATHER SERVICE PUEBLO CO
700 PM MDT SAT AUG 01 2015

NOTE: "FAIR" INDICATES FEW OR NO CLOUDS BELOW 12000 FEET WITH NO
SIGNIFICANT WEATHER AND/OR OBSTRUCTIONS TO VISIBILITY.

COZ001>005-013-030-031-020200-
...NORTHWEST COLORADO...

CITY           SKY/WX    TMP DP  RH WIND       PRES   REMARKS
CRAIG          CLOUDY    83  43  24 SW13      30.13S
HAYDEN         CLOUDY    81  34  18 SW5       30.16S
MEEKER         CLOUDY    76  44  32 W5        30.17S
MOUNT WERNER   NOT AVBL
STEAMBOAT SPGS FAIR      78  42  27 CALM      30.18S
WALDEN         PTSUNNY   73  30  20 NE6       30.29S
$$

COZ006>008-011-020200-
...WEST CENTRAL VALLEYS...

CITY           SKY/WX    TMP DP  RH WIND       PRES   REMARKS
GRAND JUNCTION CLOUDY    85  44  23 N15       30.06F
MONTROSE       CLOUDY    74  49  41 SE25G36   30.17F
EAGLE          MOSUNNY   82  36  18 CALM      30.18S
RIFLE          CLOUDY    83  43  24 W10       30.10S
DELTA          NOT AVBL
NUCLA          CLOUDY    79  50  36 SE10      30.20S
$$

COZ017>023-064>068-020200-
...SOUTHWEST COLORADO...

CITY           SKY/WX    TMP DP  RH WIND       PRES   REMARKS
DURANGO        CLOUDY    70  57  63 SE7       30.25S
CORTEZ         SUNNY     77  55  46 CALM      30.16F
PAGOSA SPRINGS FAIR      68  52  58 S3        30.34R
TELLURIDE      RAIN      56  52  86 NE3       30.45S
WOLF CREEK PAS NOT AVBL
$$

COZ009-010-012-014-032>034-037-058>063-020200-
...CENTRAL COLORADO...

CITY           SKY/WX    TMP DP  RH WIND       PRES   REMARKS
ASPEN          CLOUDY    75  43  31 SE7       30.27S
BUENA VISTA    CLOUDY    72  42  34 SE20G25   30.30R
COPPER MTN     PTSUNNY   61  30  31 W18       30.64S
BERTHOUD PASS  FAIR      50  39  66 SE13G20   30.69S
COTTONWOOD PAS CLOUDY    64  37  36 SE16G22   30.45F
GUNNISON       CLOUDY    59  54  82 SW5       30.38F
KREMMLING      CLOUDY    79  19  11 NW7       30.22S
LEADVILLE      CLOUDY    66  34  30 W10       30.43S
MONARCH PASS   CLOUDY    45  41  87 W21G28    30.73F
SALIDA         FAIR      73  46  38 SW6G24    30.36R
NIWOT RIDGE    NOT AVBL
SUNLIGHT       CLOUDY    59  43  55 CALM      30.57S
WILKERSON PASS PTSUNNY   59  41  51 CALM      30.60S
$$

COZ069>075-020200-
...SAN LUIS VALLEY/SANGRE DE CRISTO MOUNTAINS...

CITY           SKY/WX    TMP DP  RH WIND       PRES   REMARKS
ALAMOSA        CLOUDY    66  49  54 E14G25    30.32S
LA VETA PASS   DRIZZLE   46  45  93 MISG      30.54F
SAGUACHE       CLOUDY    64  46  52 S8        30.37R
$$

COZ035-036-038>040-020200-
...NORTHERN COLORADO FRONT RANGE...

CITY           SKY/WX    TMP DP  RH WIND       PRES   REMARKS
DENVER INTL AP PTSUNNY   88  48  25 SE21      30.05S
DMNS CITY PARK NOT AVBL
AURORA         PTSUNNY   86  52  30 S15G30    30.08R
FRONT RANGE AP NOT AVBL
ERIE MUNI ARPT FAIR      87  45  22 CALM      30.03S
BOULDER MUN AP FAIR      86  45  23 NW7       30.04F
CENTENNIAL     PTSUNNY   82  51  34 S17       30.09S
BROOMFIELD     PTSUNNY   90  41  18 NW7       30.08F
LOVELAND       PTSUNNY   90  45  20 NE5       30.00S
LONGMONT       FAIR      90  35  14 NE3G10    30.04F
$$

COZ041-046-047-076>085-087-088-020200-
...PIKES PEAK/PALMER DIVIDE AND SOUTHERN FOOTHILLS...

CITY           SKY/WX    TMP DP  RH WIND       PRES   REMARKS
COLO. SPRINGS  PTSUNNY   69  53  56 S22       30.23R THUNDER
A. F. ACADEMY  PTSUNNY   71  49  45 S23G29    30.22R
ELLICOTT       FAIR     N/A N/A N/A SW18G24   30.19R THUNDER
FALCON         TSTM      64  52  67 S14G20    30.28R
FORT CARSON    PTSUNNY   68  56  66 S12       30.21R
LIMON          CLOUDY    80  54  40 SE14      30.10R
MONUMENT HILL  NOT AVBL
TRINIDAD       CLOUDY    72  51  47 W16       30.20R
$$

COZ042>045-048>051-090-091-020200-
...NORTHEAST COLORADO...

CITY           SKY/WX    TMP DP  RH WIND       PRES   REMARKS
GREELEY ARPT   MOSUNNY   86  50  28 E7        30.01R
AKRON          MOSUNNY   84  56  38 SE18      30.03R
BURLINGTON     MOSUNNY   83  56  39 SE16G23   30.05S
WRAY           FAIR      87  47  25 SE14G23   30.00S
STERLING       FAIR      82  55  39 SE13      29.97S
HOLYOKE        NOT AVBL
FORT MORGAN    FAIR      87  51  28 SE9       30.01R
$$

COZ086-089-092>099-020200-
...SOUTHEAST COLORADO...

CITY           SKY/WX    TMP DP  RH WIND       PRES   REMARKS
PUEBLO         CLOUDY    69  61  75 E10       30.14R
LA JUNTA       CLOUDY    90  56  31 SE7       30.01R
LAMAR          MOSUNNY   88  63  43 SE13      29.97S
SPRINGFIELD      N/A     82  64  54 S16       30.04R
$$




USA.gov is the U.S. government's official web portal to all federal, state and local government web resources and services.